Home > Weather > Austria > Krems > Past weeks

Flag for Austria Weather past 2 weeks in Krems, Lower Austria, Austria

46 °F

Rain. Low clouds.

Feels Like: 43 °F
Forecast: 37 / 55 °F
Wind: 7 mph from Northwest

Location: Tulln Airport

Current Time: Dec 1, 2015 at 7:41:59 PM

Latest Report: Dec 1, 2015 at 6:50 PM

Visibility: 4 mi

Pressure: 30.24 "Hg

Humidity: 100%

Dew point: 46 °F

Location of KremsLocation

Historic Weather in Krems — Graph


Krems temperature yesterday

Maximum temperature yesterday: 52 °F (at 4:50 AM)
Minimum temperature yesterday: 45 °F (at 4:50 PM)
Average temperature yesterday: 51 °F

Past Weeks' High & Low Weather Summary

High66 °F (Nov 18, 11:50 AM)100% (Nov 20, 1:50 PM)30.33 "Hg (Nov 20, 1:50 PM)
Low23 °F (Nov 25, 4:50 AM)43% (Nov 18, 11:50 AM)29.42 "Hg (Nov 20, 7:50 PM)
Average44 °F78%29.95 "Hg
* Reported Nov 16 5:50 PM — Dec 1 5:50 PM, Krems, Weather by CustomWeather, © 2015

Note: Actual official high and low records may vary slightly from our data, if they occured in-between our weather recording intervals... More about our weather records


Krems weather history for previous 24 hours

Time TempWeatherWind HumidityBarometerVisibility
5:50 PM
Tue, Dec 1
46 °FRain. Passing clouds.5 mph100%30.21 "Hg4 mi
4:50 PM46 °FRain. Passing clouds.3 mph100%30.21 "Hg4 mi
3:50 PM46 °FRain. Broken clouds.6 mph100%30.18 "Hg4 mi
2:50 PM48 °FRain. Broken clouds.12 mph94%30.18 "Hg7 mi
2:20 PM50 °FLight rain. Broken clouds.25 mph88%30.15 "Hg9 mi
1:50 PM52 °FScattered showers. Broken clouds.24 mph77%30.15 "Hg16 mi
1:20 PM52 °FLight rain. Broken clouds.25 mph77%30.12 "Hg19 mi
12:50 PM52 °FBroken clouds.26 mph77%30.12 "Hg19 mi
12:20 PM52 °FBroken clouds.32 mph77%30.12 "Hg16 mi
11:50 AM52 °FBroken clouds.33 mph77%30.12 "Hg16 mi
11:20 AM52 °FPartly sunny.36 mph77%30.12 "Hg19 mi
10:50 AM52 °FPartly sunny.36 mph77%30.12 "Hg25 mi
9:50 AM52 °FPartly sunny.33 mph77%30.09 "Hg25 mi
8:50 AM50 °FBroken clouds.33 mph82%30.09 "Hg25 mi
8:20 AM50 °FBroken clouds.33 mph82%30.07 "Hg22 mi
7:50 AM50 °FBroken clouds.32 mph82%30.07 "Hg22 mi
6:50 AM50 °FPartly cloudy.31 mph82%30.04 "Hg16 mi
5:50 AM50 °FPartly cloudy.28 mph82%30.01 "Hg16 mi
4:50 AM50 °FPassing clouds.29 mph82%30.01 "Hg16 mi
9:50 PM
Mon, Nov 30
52 °FPassing clouds.21 mph67%30.04 "Hg12 mi
8:50 PM52 °FPartly cloudy.23 mph67%30.04 "Hg12 mi
7:50 PM50 °FPassing clouds.22 mph76%30.07 "Hg12 mi
Weather by CustomWeather, © 2015

See weather overviewHow to use our weather pages